Location: Cahas Mountain Overlook
(37.0833°N, 80.1000°W)
Time: 10:53:51
(UTC-04:00)

A-11 Canister half - Pass Details

Date: 14 February 2026
Orbit: 1524 x 1683 km, 47.3° (Epoch: 16 March)

Event Time Altitude Azimuth Distance (km) Brightness Sun altitude
Rises 21:31:32 0° 293° (WNW) 4,674 12.4 -42.5°
Reaches altitude 10° 21:34:44 10° 299° (WNW) 3,690 11.6 -43.1°
Enters shadow 21:41:24 42° 336° (NNW) 2,054 9.7 -44.4°
